"datetime","temp","dp","rain_mm","uv","solar","mb","wind_mph","gust_mph","windchill","rh"
"2023-06-01 00:00:00",12.8,9.6,0.0,0.0,0,1024.0,3,8,"",81
"2023-06-01 00:01:00",12.8,9.6,0.0,0.0,0,1024.0,1,4,"",81
"2023-06-01 00:02:00",12.8,9.6,0.0,0.0,0,1023.9,3,5,"",81
"2023-06-01 00:03:00",12.8,9.6,0.0,0.0,0,1024.0,4,6,"",81
"2023-06-01 00:04:00",12.8,9.6,0.0,0.0,0,1024.0,2,5,"",81
"2023-06-01 00:05:00",12.8,9.6,0.0,0.0,0,1024.0,2,8,"",81
"2023-06-01 00:06:00",12.8,9.6,0.0,0.0,0,1023.9,2,7,"",81
"2023-06-01 00:07:00",12.8,9.6,0.0,0.0,0,1024.0,2,4,"",81
"2023-06-01 00:08:00",12.8,9.6,0.0,0.0,0,1024.0,1,3,"",81
"2023-06-01 00:09:00",12.8,9.6,0.0,0.0,0,1024.0,2,4,"",81
"2023-06-01 00:10:00",12.8,9.6,0.0,0.0,0,1024.0,3,5,"",81
"2023-06-01 00:11:00",12.8,9.6,0.0,0.0,0,1024.0,2,5,"",81
"2023-06-01 00:12:00",12.8,9.6,0.0,0.0,0,1024.0,3,7,"",81
"2023-06-01 00:13:00",12.8,9.6,0.0,0.0,0,1024.0,2,5,"",81
"2023-06-01 00:14:00",12.7,9.5,0.0,0.0,0,1024.0,1,2,"",81
"2023-06-01 00:15:00",12.7,9.5,0.0,0.0,0,1024.1,2,7,"",81
"2023-06-01 00:16:00",12.7,9.5,0.0,0.0,0,1024.0,2,3,"",81
"2023-06-01 00:17:00",12.7,9.5,0.0,0.0,0,1024.0,1,5,"",81
"2023-06-01 00:18:00",12.7,9.5,0.0,0.0,0,1024.1,2,6,"",81
"2023-06-01 00:19:00",12.7,9.5,0.0,0.0,0,1024.1,2,6,"",81
"2023-06-01 00:20:00",12.7,9.5,0.0,0.0,0,1024.1,2,4,"",81
"2023-06-01 00:21:00",12.7,9.5,0.0,0.0,0,1024.1,1,2,"",81
"2023-06-01 00:22:00",12.7,9.5,0.0,0.0,0,1024.1,2,7,"",81
"2023-06-01 00:23:00",12.7,9.5,0.0,0.0,0,1024.1,1,2,"",81
"2023-06-01 00:24:00",12.7,9.5,0.0,0.0,0,1024.1,2,4,"",81
"2023-06-01 00:25:00",12.7,9.5,0.0,0.0,0,1024.1,1,2,"",81
"2023-06-01 00:26:00",12.7,9.5,0.0,0.0,0,1024.2,0,1,"",81
"2023-06-01 00:27:00",12.7,9.5,0.0,0.0,0,1024.1,1,4,"",81
"2023-06-01 00:28:00",12.7,9.5,0.0,0.0,0,1024.1,1,2,"",81
"2023-06-01 00:29:00",12.7,9.7,0.0,0.0,0,1024.1,2,3,"",82
"2023-06-01 00:30:00",12.7,9.7,0.0,0.0,0,1024.1,1,4,"",82
"2023-06-01 00:31:00",12.7,9.5,0.0,0.0,0,1024.1,3,5,"",81
"2023-06-01 00:32:00",12.7,9.7,0.0,0.0,0,1024.1,2,4,"",82
"2023-06-01 00:33:00",12.7,9.7,0.0,0.0,0,1024.0,1,3,"",82
"2023-06-01 00:34:00",12.7,9.7,0.0,0.0,0,1024.1,2,5,"",82
"2023-06-01 00:35:00",12.7,9.5,0.0,0.0,0,1024.1,2,5,"",81
"2023-06-01 00:36:00",12.7,9.5,0.0,0.0,0,1024.1,2,6,"",81
"2023-06-01 00:37:00",12.6,9.6,0.0,0.0,0,1024.1,3,6,"",82
"2023-06-01 00:38:00",12.6,9.6,0.0,0.0,0,1024.1,3,5,"",82
"2023-06-01 00:39:00",12.6,9.6,0.0,0.0,0,1024.1,1,4,"",82
"2023-06-01 00:40:00",12.6,9.6,0.0,0.0,0,1024.1,1,2,"",82
"2023-06-01 00:41:00",12.6,9.6,0.0,0.0,0,1024.1,2,4,"",82
"2023-06-01 00:42:00",12.6,9.6,0.0,0.0,0,1024.1,3,7,"",82
"2023-06-01 00:43:00",12.6,9.6,0.0,0.0,0,1024.1,3,7,"",82
"2023-06-01 00:44:00",12.6,9.6,0.0,0.0,0,1024.1,1,2,"",82
"2023-06-01 00:45:00",12.6,9.6,0.0,0.0,0,1024.1,1,2,"",82
"2023-06-01 00:46:00",12.6,9.6,0.0,0.0,0,1024.1,1,2,"",82
"2023-06-01 00:47:00",12.6,9.6,0.0,0.0,0,1024.1,2,2,"",82
"2023-06-01 00:48:00",12.5,9.5,0.0,0.0,0,1024.1,2,4,"",82
"2023-06-01 00:49:00",12.5,9.5,0.0,0.0,0,1024.1,2,5,"",82
"2023-06-01 00:50:00",12.6,9.6,0.0,0.0,0,1024.1,1,2,"",82
"2023-06-01 00:51:00",12.6,9.6,0.0,0.0,0,1024.1,1,2,"",82
"2023-06-01 00:52:00",12.6,9.6,0.0,0.0,0,1024.1,2,4,"",82
"2023-06-01 00:53:00",12.5,9.5,0.0,0.0,0,1024.1,1,2,"",82
"2023-06-01 00:54:00",12.6,9.6,0.0,0.0,0,1024.1,1,4,"",82
"2023-06-01 00:55:00",12.6,9.6,0.0,0.0,0,1024.1,3,7,"",82
"2023-06-01 00:56:00",12.6,9.6,0.0,0.0,0,1024.1,1,2,"",82
"2023-06-01 00:57:00",12.6,9.6,0.0,0.0,0,1024.1,3,6,"",82
"2023-06-01 00:58:00",12.6,9.6,0.0,0.0,0,1024.1,1,3,"",82
"2023-06-01 00:59:00",12.5,9.5,0.0,0.0,0,1024.1,2,6,"",82
"2023-06-01 01:00:00",12.5,9.3,0.0,0.0,0,1024.2,1,3,"",81
"2023-06-01 01:01:00",12.4,9.4,0.0,0.0,0,1024.2,1,2,"",82
"2023-06-01 01:02:00",12.4,9.4,0.0,0.0,0,1024.1,1,2,"",82
"2023-06-01 01:03:00",12.4,9.4,0.0,0.0,0,1024.2,1,3,"",82
"2023-06-01 01:04:00",12.4,9.4,0.0,0.0,0,1024.1,1,2,"",82
"2023-06-01 01:05:00",12.4,9.4,0.0,0.0,0,1024.1,2,3,"",82
"2023-06-01 01:06:00",12.4,9.4,0.0,0.0,0,1024.1,2,3,"",82
"2023-06-01 01:07:00",12.4,9.4,0.0,0.0,0,1024.0,1,3,"",82
"2023-06-01 01:08:00",12.4,9.4,0.0,0.0,0,1024.1,1,2,"",82
"2023-06-01 01:09:00",12.4,9.4,0.0,0.0,0,1024.1,2,3,"",82
"2023-06-01 01:10:00",12.4,9.4,0.0,0.0,0,1024.1,2,4,"",82
"2023-06-01 01:11:00",12.4,9.4,0.0,0.0,0,1024.1,3,5,"",82
"2023-06-01 01:12:00",12.3,9.3,0.0,0.0,0,1024.1,2,4,"",82
"2023-06-01 01:13:00",12.3,9.3,0.0,0.0,0,1024.1,1,3,"",82
"2023-06-01 01:14:00",12.3,9.3,0.0,0.0,0,1024.1,2,4,"",82
"2023-06-01 01:15:00",12.3,9.3,0.0,0.0,0,1024.1,3,6,"",82
"2023-06-01 01:16:00",12.3,9.3,0.0,0.0,0,1024.1,2,5,"",82
"2023-06-01 01:17:00",12.3,9.3,0.0,0.0,0,1024.1,2,5,"",82
"2023-06-01 01:18:00",12.3,9.3,0.0,0.0,0,1024.1,3,10,"",82
"2023-06-01 01:19:00",12.3,9.3,0.0,0.0,0,1024.0,4,13,"",82
"2023-06-01 01:20:00",12.3,9.3,0.0,0.0,0,1024.1,2,4,"",82
"2023-06-01 01:21:00",12.3,9.3,0.0,0.0,0,1024.1,1,3,"",82
"2023-06-01 01:22:00",12.3,9.3,0.0,0.0,0,1024.1,2,4,"",82
"2023-06-01 01:23:00",12.3,9.3,0.0,0.0,0,1024.1,3,6,"",82
"2023-06-01 01:24:00",12.3,9.3,0.0,0.0,0,1024.0,2,4,"",82
"2023-06-01 01:25:00",12.2,9.2,0.0,0.0,0,1024.1,2,5,"",82
"2023-06-01 01:26:00",12.2,9.2,0.0,0.0,0,1024.1,2,4,"",82
"2023-06-01 01:27:00",12.2,9.2,0.0,0.0,0,1024.1,3,5,"",82
"2023-06-01 01:28:00",12.2,9.2,0.0,0.0,0,1024.1,1,2,"",82
"2023-06-01 01:29:00",12.2,9.2,0.0,0.0,0,1024.0,2,4,"",82
"2023-06-01 01:30:00",12.2,9.2,0.0,0.0,0,1024.0,3,6,"",82
"2023-06-01 01:31:00",12.2,9.2,0.0,0.0,0,1024.0,3,6,"",82
"2023-06-01 01:32:00",12.2,9.2,0.0,0.0,0,1023.9,2,6,"",82
"2023-06-01 01:33:00",12.1,9.1,0.0,0.0,0,1023.9,2,4,"",82
"2023-06-01 01:34:00",12.1,9.1,0.0,0.0,0,1024.0,1,3,"",82
"2023-06-01 01:35:00",12.1,9.1,0.0,0.0,0,1023.9,2,4,"",82
"2023-06-01 01:36:00",12.1,9.1,0.0,0.0,0,1023.9,1,2,"",82
"2023-06-01 01:37:00",12.1,9.1,0.0,0.0,0,1023.9,1,4,"",82
"2023-06-01 01:38:00",12.1,9.1,0.0,0.0,0,1023.9,2,3,"",82
"2023-06-01 01:39:00",12.1,9.1,0.0,0.0,0,1023.9,1,2,"",82
"2023-06-01 01:40:00",12.1,9.1,0.0,0.0,0,1023.9,1,2,"",82
"2023-06-01 01:41:00",12.1,9.1,0.0,0.0,0,1023.9,0,1,"",82
"2023-06-01 01:42:00",12.1,9.1,0.0,0.0,0,1023.9,2,4,"",82
"2023-06-01 01:43:00",12.1,9.1,0.0,0.0,0,1023.9,1,2,"",82
"2023-06-01 01:44:00",12.1,9.1,0.0,0.0,0,1023.9,2,3,"",82
"2023-06-01 01:45:00",12.1,9.1,0.0,0.0,0,1023.9,2,6,"",82
"2023-06-01 01:46:00",12.2,9.2,0.0,0.0,0,1023.9,2,4,"",82
"2023-06-01 01:47:00",12.2,9.2,0.0,0.0,0,1023.9,2,3,"",82
"2023-06-01 01:48:00",12.2,9.2,0.0,0.0,0,1024.0,1,2,"",82
"2023-06-01 01:49:00",12.2,9.2,0.0,0.0,0,1023.9,1,2,"",82
"2023-06-01 01:50:00",12.2,9.2,0.0,0.0,0,1023.9,1,3,"",82
"2023-06-01 01:51:00",12.2,9.2,0.0,0.0,0,1024.0,1,2,"",82
"2023-06-01 01:52:00",12.2,9.2,0.0,0.0,0,1024.0,3,5,"",82
"2023-06-01 01:53:00",12.1,9.1,0.0,0.0,0,1024.0,3,6,"",82
"2023-06-01 01:54:00",12.1,9.1,0.0,0.0,0,1024.0,2,5,"",82
"2023-06-01 01:55:00",12.1,9.1,0.0,0.0,0,1024.0,4,14,"",82
"2023-06-01 01:56:00",12.1,9.1,0.0,0.0,0,1024.0,2,4,"",82
"2023-06-01 01:57:00",12.0,9.0,0.0,0.0,0,1024.0,3,5,"",82
"2023-06-01 01:58:00",12.0,9.0,0.0,0.0,0,1024.0,3,5,"",82
"2023-06-01 01:59:00",11.9,8.9,0.0,0.0,0,1024.0,1,2,"",82
"2023-06-01 02:00:00",11.9,8.9,0.0,0.0,0,1024.0,3,6,"",82
"2023-06-01 02:01:00",11.9,8.9,0.0,0.0,0,1024.0,2,4,"",82
"2023-06-01 02:02:00",11.8,8.8,0.0,0.0,0,1024.0,3,8,"",82
"2023-06-01 02:03:00",11.8,8.8,0.0,0.0,0,1024.0,3,6,"",82
"2023-06-01 02:04:00",11.8,8.8,0.0,0.0,0,1024.0,2,4,"",82
"2023-06-01 02:05:00",11.7,8.7,0.0,0.0,0,1024.0,2,5,"",82
"2023-06-01 02:06:00",11.7,8.9,0.0,0.0,0,1024.0,2,2,"",83
"2023-06-01 02:07:00",11.7,8.9,0.0,0.0,0,1023.9,2,3,"",83
"2023-06-01 02:08:00",11.7,8.9,0.0,0.0,0,1024.0,2,3,"",83
"2023-06-01 02:09:00",11.8,9.0,0.0,0.0,0,1024.0,3,5,"",83
"2023-06-01 02:10:00",11.7,8.9,0.0,0.0,0,1024.0,2,6,"",83
"2023-06-01 02:11:00",11.7,8.9,0.0,0.0,0,1023.9,2,8,"",83
"2023-06-01 02:12:00",11.7,8.9,0.0,0.0,0,1024.0,4,9,"",83
"2023-06-01 02:13:00",11.7,8.9,0.0,0.0,0,1024.0,2,4,"",83
"2023-06-01 02:14:00",11.7,8.9,0.0,0.0,0,1024.0,2,3,"",83
"2023-06-01 02:15:00",11.7,8.9,0.0,0.0,0,1023.9,2,4,"",83
"2023-06-01 02:16:00",11.7,8.9,0.0,0.0,0,1023.9,2,4,"",83
"2023-06-01 02:17:00",11.6,8.8,0.0,0.0,0,1024.0,2,9,"",83
"2023-06-01 02:18:00",11.6,8.8,0.0,0.0,0,1023.9,3,7,"",83
"2023-06-01 02:19:00",11.6,8.8,0.0,0.0,0,1023.9,2,4,"",83
"2023-06-01 02:20:00",11.6,8.8,0.0,0.0,0,1024.0,2,3,"",83
"2023-06-01 02:21:00",11.7,8.9,0.0,0.0,0,1024.0,1,3,"",83
"2023-06-01 02:22:00",11.6,8.8,0.0,0.0,0,1023.9,2,4,"",83
"2023-06-01 02:23:00",11.6,8.8,0.0,0.0,0,1024.0,3,9,"",83
"2023-06-01 02:24:00",11.6,8.8,0.0,0.0,0,1024.0,2,3,"",83
"2023-06-01 02:25:00",11.6,8.8,0.0,0.0,0,1023.9,2,3,"",83
"2023-06-01 02:26:00",11.6,8.8,0.0,0.0,0,1024.0,2,6,"",83
"2023-06-01 02:27:00",11.6,8.8,0.0,0.0,0,1024.0,3,6,"",83
"2023-06-01 02:28:00",11.6,8.8,0.0,0.0,0,1024.0,1,3,"",83
"2023-06-01 02:29:00",11.5,8.7,0.0,0.0,0,1024.0,1,3,"",83
"2023-06-01 02:30:00",11.5,8.7,0.0,0.0,0,1023.9,2,3,"",83
"2023-06-01 02:31:00",11.5,8.7,0.0,0.0,0,1024.0,1,2,"",83
"2023-06-01 02:32:00",11.5,8.7,0.0,0.0,0,1024.0,1,2,"",83
"2023-06-01 02:33:00",11.5,8.7,0.0,0.0,0,1024.0,1,2,"",83
"2023-06-01 02:34:00",11.6,8.8,0.0,0.0,0,1024.0,1,2,"",83
"2023-06-01 02:35:00",11.5,8.7,0.0,0.0,0,1024.0,1,2,"",83
"2023-06-01 02:36:00",11.5,8.7,0.0,0.0,0,1024.0,0,1,"",83
"2023-06-01 02:37:00",11.6,8.8,0.0,0.0,0,1024.0,2,4,"",83
"2023-06-01 02:38:00",11.6,8.8,0.0,0.0,0,1024.0,3,5,"",83
"2023-06-01 02:39:00",11.6,8.8,0.0,0.0,0,1024.0,3,5,"",83
"2023-06-01 02:40:00",11.6,8.8,0.0,0.0,0,1024.0,2,4,"",83
"2023-06-01 02:41:00",11.6,9.0,0.0,0.0,0,1024.0,0,1,"",84
"2023-06-01 02:42:00",11.6,9.0,0.0,0.0,0,1024.0,0,1,"",84
"2023-06-01 02:43:00",11.6,9.0,0.0,0.0,0,1023.9,1,3,"",84
"2023-06-01 02:44:00",11.6,8.8,0.0,0.0,0,1024.0,1,2,"",83
"2023-06-01 02:45:00",11.6,8.8,0.0,0.0,0,1024.0,1,2,"",83
"2023-06-01 02:46:00",11.6,8.8,0.0,0.0,0,1024.0,2,2,"",83
"2023-06-01 02:47:00",11.6,8.8,0.0,0.0,0,1024.0,2,4,"",83
"2023-06-01 02:48:00",11.6,9.0,0.0,0.0,0,1024.0,2,5,"",84
"2023-06-01 02:49:00",11.6,9.0,0.0,0.0,0,1023.9,2,5,"",84
"2023-06-01 02:50:00",11.6,9.0,0.0,0.0,0,1024.0,2,3,"",84
"2023-06-01 02:51:00",11.6,9.0,0.0,0.0,0,1024.0,2,3,"",84
"2023-06-01 02:52:00",11.6,9.0,0.0,0.0,0,1024.0,1,3,"",84
"2023-06-01 02:53:00",11.6,9.0,0.0,0.0,0,1024.0,2,3,"",84
"2023-06-01 02:54:00",11.6,9.0,0.0,0.0,0,1024.0,2,5,"",84
"2023-06-01 02:55:00",11.7,9.1,0.0,0.0,0,1024.0,2,6,"",84
"2023-06-01 02:56:00",11.6,9.0,0.0,0.0,0,1024.0,1,2,"",84
"2023-06-01 02:57:00",11.7,9.1,0.0,0.0,0,1024.0,1,2,"",84
"2023-06-01 02:58:00",11.6,9.0,0.0,0.0,0,1024.0,2,4,"",84
"2023-06-01 02:59:00",11.6,9.0,0.0,0.0,0,1023.9,2,5,"",84
"2023-06-01 03:00:00",11.6,9.0,0.0,0.0,0,1024.0,2,4,"",84
"2023-06-01 03:01:00",11.6,9.0,0.0,0.0,0,1024.0,2,6,"",84
"2023-06-01 03:02:00",11.5,8.9,0.0,0.0,0,1023.9,2,3,"",84
"2023-06-01 03:03:00",11.5,8.9,0.0,0.0,0,1023.9,2,3,"",84
"2023-06-01 03:04:00",11.5,8.9,0.0,0.0,0,1023.9,2,3,"",84
"2023-06-01 03:05:00",11.4,8.8,0.0,0.0,0,1024.0,2,5,"",84
"2023-06-01 03:06:00",11.5,8.9,0.0,0.0,0,1024.0,4,7,"",84
"2023-06-01 03:07:00",11.4,8.8,0.0,0.0,0,1023.9,3,6,"",84
"2023-06-01 03:08:00",11.4,8.8,0.0,0.0,0,1024.0,1,3,"",84
"2023-06-01 03:09:00",11.5,8.9,0.0,0.0,0,1024.0,2,5,"",84
"2023-06-01 03:10:00",11.5,8.9,0.0,0.0,0,1023.9,3,5,"",84
"2023-06-01 03:11:00",11.4,8.8,0.0,0.0,0,1023.9,2,4,"",84
"2023-06-01 03:12:00",11.4,8.8,0.0,0.0,0,1024.0,2,5,"",84
"2023-06-01 03:13:00",11.4,8.8,0.0,0.0,0,1023.9,2,4,"",84
"2023-06-01 03:14:00",11.4,8.8,0.0,0.0,0,1023.9,3,5,"",84
"2023-06-01 03:15:00",11.4,8.8,0.0,0.0,0,1023.9,4,8,"",84
"2023-06-01 03:16:00",11.4,8.8,0.0,0.0,0,1023.9,3,6,"",84
"2023-06-01 03:17:00",11.3,8.7,0.0,0.0,0,1023.9,2,8,"",84
"2023-06-01 03:18:00",11.3,8.7,0.0,0.0,0,1023.9,2,4,"",84
"2023-06-01 03:19:00",11.3,8.7,0.0,0.0,0,1024.0,2,5,"",84
"2023-06-01 03:20:00",11.2,8.6,0.0,0.0,0,1023.9,3,4,"",84
"2023-06-01 03:21:00",11.2,8.6,0.0,0.0,0,1023.9,4,7,"",84
"2023-06-01 03:22:00",11.2,8.6,0.0,0.0,0,1023.9,2,4,"",84
"2023-06-01 03:23:00",11.2,8.6,0.0,0.0,0,1023.9,2,3,"",84
"2023-06-01 03:24:00",11.2,8.6,0.0,0.0,0,1024.0,3,5,"",84
"2023-06-01 03:25:00",11.2,8.6,0.0,0.0,0,1023.9,3,5,"",84
"2023-06-01 03:26:00",11.2,8.6,0.0,0.0,0,1023.9,2,5,"",84
"2023-06-01 03:27:00",11.1,8.7,0.0,0.0,0,1023.9,3,6,"",85
"2023-06-01 03:28:00",11.2,8.6,0.0,0.0,0,1023.9,2,5,"",84
"2023-06-01 03:29:00",11.1,8.7,0.0,0.0,0,1023.9,1,2,"",85
"2023-06-01 03:30:00",11.1,8.7,0.0,0.0,0,1023.9,1,2,"",85
"2023-06-01 03:31:00",11.1,8.7,0.0,0.0,0,1023.9,1,2,"",85
"2023-06-01 03:32:00",11.1,8.7,0.0,0.0,0,1023.9,1,2,"",85
"2023-06-01 03:33:00",11.1,8.7,0.0,0.0,0,1023.9,1,3,"",85
"2023-06-01 03:34:00",11.1,8.7,0.0,0.0,0,1023.9,2,3,"",85
"2023-06-01 03:35:00",11.1,8.7,0.0,0.0,0,1023.9,2,4,"",85
"2023-06-01 03:36:00",11.1,8.7,0.0,0.0,0,1023.8,3,8,"",85
"2023-06-01 03:37:00",11.1,8.7,0.0,0.0,0,1023.9,2,3,"",85
"2023-06-01 03:38:00",11.1,8.7,0.0,0.0,0,1023.8,1,3,"",85
"2023-06-01 03:39:00",11.2,8.8,0.0,0.0,0,1023.9,2,3,"",85
"2023-06-01 03:40:00",11.1,8.7,0.0,0.0,0,1023.9,3,8,"",85
"2023-06-01 03:41:00",11.1,8.7,0.0,0.0,0,1023.9,4,9,"",85
"2023-06-01 03:42:00",11.1,8.5,0.0,0.0,0,1023.8,1,3,"",84
"2023-06-01 03:43:00",11.1,8.5,0.0,0.0,0,1023.8,2,4,"",84
"2023-06-01 03:44:00",11.0,8.6,0.0,0.0,0,1023.8,1,3,"",85
"2023-06-01 03:45:00",11.0,8.6,0.0,0.0,0,1023.8,1,3,"",85
"2023-06-01 03:46:00",11.0,8.6,0.0,0.0,0,1023.8,1,3,"",85
"2023-06-01 03:47:00",11.0,8.6,0.0,0.0,0,1023.8,1,3,"",85
"2023-06-01 03:48:00",11.0,8.6,0.0,0.0,0,1023.8,3,5,"",85
"2023-06-01 03:49:00",10.9,8.5,0.0,0.0,0,1023.8,1,5,"",85
"2023-06-01 03:50:00",10.9,8.5,0.0,0.0,0,1023.8,2,5,"",85
"2023-06-01 03:51:00",10.9,8.5,0.0,0.0,0,1023.8,2,7,"",85
"2023-06-01 03:52:00",10.9,8.5,0.0,0.0,0,1023.8,2,5,"",85
"2023-06-01 03:53:00",10.9,8.5,0.0,0.0,0,1023.8,4,6,"",85
"2023-06-01 03:54:00",10.9,8.5,0.0,0.0,0,1023.8,2,5,"",85
"2023-06-01 03:55:00",10.8,8.4,0.0,0.0,0,1023.8,2,4,"",85
"2023-06-01 03:56:00",10.8,8.4,0.0,0.0,0,1023.8,2,6,"",85
"2023-06-01 03:57:00",10.8,8.4,0.0,0.0,0,1023.8,3,5,"",85
"2023-06-01 03:58:00",10.8,8.4,0.0,0.0,0,1023.8,2,5,"",85
"2023-06-01 03:59:00",10.8,8.4,0.0,0.0,0,1023.8,2,5,"",85
"2023-06-01 04:00:00",10.8,8.4,0.0,0.0,0,1023.8,3,6,"",85
"2023-06-01 04:01:00",10.8,8.4,0.0,0.0,0,1023.8,2,3,"",85
"2023-06-01 04:02:00",10.8,8.4,0.0,0.0,0,1023.8,1,3,"",85
"2023-06-01 04:03:00",10.8,8.4,0.0,0.0,0,1023.8,2,5,"",85
"2023-06-01 04:04:00",10.8,8.4,0.0,0.0,0,1023.8,2,5,"",85
"2023-06-01 04:05:00",10.8,8.4,0.0,0.0,0,1023.8,3,5,"",85
"2023-06-01 04:06:00",10.8,8.4,0.0,0.0,0,1023.8,1,2,"",85
"2023-06-01 04:07:00",10.8,8.4,0.0,0.0,0,1023.8,2,4,"",85
"2023-06-01 04:08:00",10.8,8.4,0.0,0.0,0,1023.8,2,4,"",85
"2023-06-01 04:09:00",10.8,8.4,0.0,0.0,0,1023.8,3,6,"",85
"2023-06-01 04:10:00",10.8,8.4,0.0,0.0,0,1023.8,2,4,"",85
"2023-06-01 04:11:00",10.8,8.4,0.0,0.0,0,1023.8,2,3,"",85
"2023-06-01 04:12:00",10.8,8.4,0.0,0.0,0,1023.8,2,3,"",85
"2023-06-01 04:13:00",10.9,8.5,0.0,0.0,0,1023.8,2,4,"",85
"2023-06-01 04:14:00",10.9,8.5,0.0,0.0,0,1023.7,2,4,"",85
"2023-06-01 04:15:00",10.9,8.5,0.0,0.0,0,1023.8,4,7,"",85
"2023-06-01 04:16:00",10.8,8.4,0.0,0.0,0,1023.8,1,3,"",85
"2023-06-01 04:17:00",10.8,8.4,0.0,0.0,0,1023.8,2,5,"",85
"2023-06-01 04:18:00",10.8,8.4,0.0,0.0,0,1023.8,1,2,"",85
"2023-06-01 04:19:00",10.9,8.5,0.0,0.0,0,1023.8,1,3,"",85
"2023-06-01 04:20:00",10.9,8.5,0.0,0.0,0,1023.8,1,3,"",85
"2023-06-01 04:21:00",10.8,8.4,0.0,0.0,0,1023.8,2,3,"",85
"2023-06-01 04:22:00",10.8,8.4,0.0,0.0,0,1023.8,1,3,"",85
"2023-06-01 04:23:00",10.8,8.4,0.0,0.0,0,1023.8,2,6,"",85
"2023-06-01 04:24:00",10.8,8.4,0.0,0.0,0,1023.8,2,3,"",85
"2023-06-01 04:25:00",10.8,8.4,0.0,0.0,0,1023.8,3,5,"",85
"2023-06-01 04:26:00",10.8,8.4,0.0,0.0,0,1023.8,1,2,"",85
"2023-06-01 04:27:00",10.8,8.4,0.0,0.0,0,1023.8,1,2,"",85
"2023-06-01 04:28:00",10.8,8.4,0.0,0.0,0,1023.8,1,4,"",85
"2023-06-01 04:29:00",10.8,8.4,0.0,0.0,0,1023.8,1,2,"",85
"2023-06-01 04:30:00",10.8,8.4,0.0,0.0,0,1023.8,1,2,"",85
"2023-06-01 04:31:00",10.8,8.4,0.0,0.0,0,1023.8,4,11,"",85
"2023-06-01 04:32:00",10.8,8.4,0.0,0.0,0,1023.8,2,4,"",85
"2023-06-01 04:33:00",10.8,8.4,0.0,0.0,0,1023.8,1,3,"",85
"2023-06-01 04:34:00",10.7,8.3,0.0,0.0,0,1023.7,1,3,"",85
"2023-06-01 04:35:00",10.7,8.3,0.0,0.0,0,1023.8,1,3,"",85
"2023-06-01 04:36:00",10.7,8.3,0.0,0.0,0,1023.8,1,2,"",85
"2023-06-01 04:37:00",10.8,8.6,0.0,0.0,0,1023.8,2,3,"",86
"2023-06-01 04:38:00",10.7,8.5,0.0,0.0,0,1023.8,2,5,"",86
"2023-06-01 04:39:00",10.8,8.6,0.0,0.0,0,1023.7,1,3,"",86
"2023-06-01 04:40:00",10.8,8.6,0.0,0.0,0,1023.7,1,3,"",86
"2023-06-01 04:41:00",10.8,8.6,0.0,0.0,0,1023.7,1,2,"",86
"2023-06-01 04:42:00",10.7,8.3,0.0,0.0,0,1023.8,1,3,"",85
"2023-06-01 04:43:00",10.7,8.3,0.0,0.0,0,1023.8,1,3,"",85
"2023-06-01 04:44:00",10.7,8.5,0.0,0.0,0,1023.7,2,5,"",86
"2023-06-01 04:45:00",10.7,8.5,0.0,0.0,0,1023.7,2,3,"",86
"2023-06-01 04:46:00",10.7,8.5,0.0,0.0,0,1023.7,1,2,"",86
"2023-06-01 04:47:00",10.7,8.5,0.0,0.0,0,1023.7,1,2,"",86
"2023-06-01 04:48:00",10.7,8.5,0.0,0.0,0,1023.7,2,5,"",86
"2023-06-01 04:49:00",10.7,8.5,0.0,0.0,0,1023.7,1,3,"",86
"2023-06-01 04:50:00",10.7,8.5,0.0,0.0,0,1023.7,1,2,"",86
"2023-06-01 04:51:00",10.7,8.5,0.0,0.0,0,1023.7,2,5,"",86
"2023-06-01 04:52:00",10.7,8.5,0.0,0.0,0,1023.7,2,3,"",86
"2023-06-01 04:53:00",10.7,8.5,0.0,0.0,0,1023.8,2,4,"",86
"2023-06-01 04:54:00",10.6,8.4,0.0,0.0,0,1023.7,1,2,"",86
"2023-06-01 04:55:00",10.6,8.4,0.0,0.0,0,1023.7,0,1,"",86
"2023-06-01 04:56:00",10.6,8.4,0.0,0.0,0,1023.7,1,2,"",86
"2023-06-01 04:57:00",10.6,8.4,0.0,0.0,0,1023.7,2,3,"",86
"2023-06-01 04:58:00",10.6,8.4,0.0,0.0,0,1023.7,0,1,"",86
"2023-06-01 04:59:00",10.6,8.4,0.0,0.0,0,1023.7,1,1,"",86
"2023-06-01 05:00:00",10.6,8.4,0.0,0.0,0,1023.6,1,2,"",86
"2023-06-01 05:01:00",10.6,8.4,0.0,0.0,0,1023.6,1,6,"",86
"2023-06-01 05:02:00",10.6,8.4,0.0,0.0,0,1023.6,3,7,"",86
"2023-06-01 05:03:00",10.6,8.4,0.0,0.0,0,1023.6,2,6,"",86
"2023-06-01 05:04:00",10.6,8.4,0.0,0.0,0,1023.6,1,2,"",86
"2023-06-01 05:05:00",10.6,8.4,0.0,0.0,0,1023.6,1,2,"",86
"2023-06-01 05:06:00",10.6,8.4,0.0,0.0,0,1023.6,1,2,"",86
"2023-06-01 05:07:00",10.6,8.4,0.0,0.0,0,1023.6,1,3,"",86
"2023-06-01 05:08:00",10.6,8.4,0.0,0.0,0,1023.7,1,2,"",86
"2023-06-01 05:09:00",10.6,8.4,0.0,0.0,0,1023.6,1,2,"",86
"2023-06-01 05:10:00",10.6,8.4,0.0,0.0,0,1023.6,1,2,"",86
"2023-06-01 05:11:00",10.6,8.4,0.0,0.0,0,1023.7,1,2,"",86
"2023-06-01 05:12:00",10.6,8.4,0.0,0.0,0,1023.6,1,4,"",86
"2023-06-01 05:13:00",10.6,8.4,0.0,0.0,0,1023.7,3,5,"",86
"2023-06-01 05:14:00",10.6,8.4,0.0,0.0,0,1023.7,2,3,"",86
"2023-06-01 05:15:00",10.6,8.4,0.0,0.0,0,1023.7,1,2,"",86
"2023-06-01 05:16:00",10.6,8.4,0.0,0.0,0,1023.7,1,2,"",86
"2023-06-01 05:17:00",10.6,8.4,0.0,0.0,0,1023.7,1,3,"",86
"2023-06-01 05:18:00",10.6,8.4,0.0,0.0,0,1023.7,2,2,"",86
"2023-06-01 05:19:00",10.6,8.4,0.0,0.0,0,1023.7,2,4,"",86
"2023-06-01 05:20:00",10.5,8.3,0.0,0.0,5,1023.7,1,2,"",86
"2023-06-01 05:21:00",10.5,8.3,0.0,0.0,5,1023.7,1,2,"",86
"2023-06-01 05:22:00",10.5,8.3,0.0,0.0,5,1023.7,1,3,"",86
"2023-06-01 05:23:00",10.5,8.3,0.0,0.0,7,1023.8,1,2,"",86
"2023-06-01 05:24:00",10.4,8.2,0.0,0.0,7,1023.8,2,5,"",86
"2023-06-01 05:25:00",10.4,8.2,0.0,0.0,7,1023.7,2,4,"",86
"2023-06-01 05:26:00",10.4,8.2,0.0,0.0,7,1023.8,3,6,"",86
"2023-06-01 05:27:00",10.4,8.2,0.0,0.0,7,1023.8,2,6,"",86
"2023-06-01 05:28:00",10.4,8.2,0.0,0.0,7,1023.8,2,3,"",86
"2023-06-01 05:29:00",10.4,8.2,0.0,0.0,7,1023.8,2,5,"",86
"2023-06-01 05:30:00",10.3,7.9,0.0,0.0,7,1023.8,2,5,"",85
"2023-06-01 05:31:00",10.3,8.1,0.0,0.0,7,1023.8,2,5,"",86
"2023-06-01 05:32:00",10.3,8.1,0.0,0.0,7,1023.8,1,2,"",86
"2023-06-01 05:33:00",10.3,8.1,0.0,0.0,7,1023.8,1,2,"",86
"2023-06-01 05:34:00",10.3,8.1,0.0,0.0,7,1023.8,2,4,"",86
"2023-06-01 05:35:00",10.3,8.1,0.0,0.0,7,1023.8,2,3,"",86
"2023-06-01 05:36:00",10.3,8.1,0.0,0.0,7,1023.8,2,4,"",86
"2023-06-01 05:37:00",10.3,7.9,0.0,0.0,9,1023.8,1,3,"",85
"2023-06-01 05:38:00",10.3,7.9,0.0,0.0,9,1023.8,1,6,"",85
"2023-06-01 05:39:00",10.3,7.9,0.0,0.0,9,1023.7,1,4,"",85
"2023-06-01 05:40:00",10.3,8.1,0.0,0.0,9,1023.8,2,5,"",86
"2023-06-01 05:41:00",10.3,8.1,0.0,0.0,9,1023.8,3,7,"",86
"2023-06-01 05:42:00",10.3,7.9,0.0,0.0,9,1023.7,3,5,"",85
"2023-06-01 05:43:00",10.3,8.1,0.0,0.0,9,1023.8,3,7,"",86
"2023-06-01 05:44:00",10.3,8.1,0.0,0.0,9,1023.7,3,3,"",86
"2023-06-01 05:45:00",10.3,8.1,0.0,0.0,9,1023.7,1,4,"",86
"2023-06-01 05:46:00",10.4,8.2,0.0,0.0,9,1023.8,1,3,"",86
"2023-06-01 05:47:00",10.4,8.2,0.0,0.0,11,1023.8,2,3,"",86
"2023-06-01 05:48:00",10.4,8.2,0.0,0.0,11,1023.8,2,3,"",86
"2023-06-01 05:49:00",10.4,8.2,0.0,0.0,11,1023.8,2,3,"",86
"2023-06-01 05:50:00",10.4,8.2,0.0,0.0,12,1023.7,1,2,"",86
"2023-06-01 05:51:00",10.4,8.2,0.0,0.0,12,1023.7,2,6,"",86
"2023-06-01 05:52:00",10.4,8.2,0.0,0.0,14,1023.8,2,4,"",86
"2023-06-01 05:53:00",10.4,8.2,0.0,0.0,14,1023.8,2,4,"",86
"2023-06-01 05:54:00",10.4,8.2,0.0,0.0,12,1023.8,2,3,"",86
"2023-06-01 05:55:00",10.3,8.1,0.0,0.0,14,1023.8,2,6,"",86
"2023-06-01 05:56:00",10.3,7.9,0.0,0.0,14,1023.8,3,5,"",85
"2023-06-01 05:57:00",10.3,8.1,0.0,0.0,12,1023.8,2,2,"",86
"2023-06-01 05:58:00",10.3,7.9,0.0,0.0,14,1023.8,3,7,"",85
"2023-06-01 05:59:00",10.3,7.9,0.0,0.0,14,1023.8,2,6,"",85
"2023-06-01 06:00:00",10.3,7.9,0.0,0.0,16,1023.8,4,6,"",85
"2023-06-01 06:01:00",10.4,8.0,0.0,0.0,16,1023.8,2,4,"",85
"2023-06-01 06:02:00",10.3,7.9,0.0,0.0,16,1023.8,1,3,"",85
"2023-06-01 06:03:00",10.3,7.9,0.0,0.0,18,1023.8,1,2,"",85
"2023-06-01 06:04:00",10.3,7.9,0.0,0.0,16,1023.8,1,2,"",85
"2023-06-01 06:05:00",10.3,8.1,0.0,0.0,18,1023.8,1,3,"",86
"2023-06-01 06:06:00",10.4,8.0,0.0,0.0,18,1023.8,1,3,"",85
"2023-06-01 06:07:00",10.4,8.2,0.0,0.0,18,1023.8,3,7,"",86
"2023-06-01 06:08:00",10.3,7.9,0.0,0.0,18,1023.8,2,4,"",85
"2023-06-01 06:09:00",10.3,7.9,0.0,0.0,19,1023.8,2,4,"",85
"2023-06-01 06:10:00",10.3,7.9,0.0,0.0,18,1023.8,1,3,"",85
"2023-06-01 06:11:00",10.3,8.1,0.0,0.0,18,1023.9,3,6,"",86
"2023-06-01 06:12:00",10.3,7.9,0.0,0.0,19,1023.9,2,4,"",85
"2023-06-01 06:13:00",10.3,8.1,0.0,0.0,19,1023.8,2,4,"",86
"2023-06-01 06:14:00",10.3,7.9,0.0,0.0,21,1023.8,4,9,"",85
"2023-06-01 06:15:00",10.3,7.9,0.0,0.0,21,1023.8,4,6,"",85
"2023-06-01 06:16:00",10.3,7.9,0.0,0.0,21,1023.8,3,6,"",85
"2023-06-01 06:17:00",10.3,7.9,0.0,0.0,21,1023.8,2,5,"",85
"2023-06-01 06:18:00",10.3,7.9,0.0,0.0,21,1023.8,2,4,"",85
"2023-06-01 06:19:00",10.3,7.9,0.0,0.0,21,1023.8,2,3,"",85
"2023-06-01 06:20:00",10.3,7.9,0.0,0.0,21,1023.9,2,3,"",85
"2023-06-01 06:21:00",10.2,7.8,0.0,0.0,21,1023.8,2,5,"",85
"2023-06-01 06:22:00",10.2,7.8,0.0,0.0,23,1023.8,2,3,"",85
"2023-06-01 06:23:00",10.2,8.0,0.0,0.0,23,1023.8,3,8,"",86
"2023-06-01 06:24:00",10.2,8.0,0.0,0.0,23,1023.7,3,7,"",86
"2023-06-01 06:25:00",10.3,8.1,0.0,0.0,25,1023.8,3,5,"",86
"2023-06-01 06:26:00",10.3,8.1,0.0,0.0,25,1023.8,2,4,"",86
"2023-06-01 06:27:00",10.3,8.1,0.0,0.0,26,1023.8,2,5,"",86
"2023-06-01 06:28:00",10.2,8.0,0.0,0.0,26,1023.8,3,6,"",86
"2023-06-01 06:29:00",10.3,8.1,0.0,0.0,28,1023.8,2,3,"",86
"2023-06-01 06:30:00",10.3,8.1,0.0,0.0,26,1023.8,1,3,"",86
"2023-06-01 06:31:00",10.3,8.1,0.0,0.0,28,1023.8,2,4,"",86
"2023-06-01 06:32:00",10.3,8.1,0.0,0.0,28,1023.8,1,3,"",86
"2023-06-01 06:33:00",10.3,8.1,0.0,0.0,26,1023.8,2,4,"",86
"2023-06-01 06:34:00",10.3,8.1,0.0,0.0,28,1023.8,2,3,"",86
"2023-06-01 06:35:00",10.4,8.2,0.0,0.0,28,1023.8,2,4,"",86
"2023-06-01 06:36:00",10.3,8.1,0.0,0.0,28,1023.8,3,5,"",86
"2023-06-01 06:37:00",10.3,8.1,0.0,0.0,33,1023.8,2,6,"",86
"2023-06-01 06:38:00",10.3,8.1,0.0,0.0,33,1023.8,2,4,"",86
"2023-06-01 06:39:00",10.3,8.1,0.0,0.0,32,1023.7,1,2,"",86
"2023-06-01 06:40:00",10.4,8.2,0.0,0.0,33,1023.8,1,5,"",86
"2023-06-01 06:41:00",10.4,8.2,0.0,0.0,33,1023.8,1,4,"",86
"2023-06-01 06:42:00",10.4,8.2,0.0,0.0,35,1023.9,3,7,"",86
"2023-06-01 06:43:00",10.4,8.2,0.0,0.0,35,1023.8,2,4,"",86
"2023-06-01 06:44:00",10.4,8.2,0.0,0.0,35,1023.8,2,5,"",86
"2023-06-01 06:45:00",10.4,8.2,0.0,0.0,37,1023.8,3,5,"",86
"2023-06-01 06:46:00",10.4,8.2,0.0,0.0,35,1023.8,2,4,"",86
"2023-06-01 06:47:00",10.4,8.2,0.0,0.0,35,1023.8,2,4,"",86
"2023-06-01 06:48:00",10.4,8.2,0.0,0.0,39,1023.8,3,5,"",86
"2023-06-01 06:49:00",10.4,8.2,0.0,0.0,37,1023.9,4,7,"",86
"2023-06-01 06:50:00",10.4,8.2,0.0,0.0,35,1023.8,2,4,"",86